Tracking 29090 objects as of 16-Jul-2024
HD Live streaming from Space Station
objects crossing your sky now

STARLINK-5880

Track STARLINK-5880 now!
10-day predictions
STARLINK-5880 is classified as:


NORAD ID: 57220
Int'l Code: 2023-094C
Perigee: 565.2 km
Apogee: 567.3 km
Inclination: 43.0 °
Period: 95.8 minutes
Semi major axis: 6937 km
RCS: Unknown
Launch date: July 7, 2023
Source: United States (US)
Launch site: AIR FORCE WESTERN TEST RANGE (AFWTR)
Your satellite tracking list
Your tracking list is empty




NASA's NSSDC Master Catalog

Two Line Element Set (TLE):
1 57220U 23094C   24196.97148085  .00000425  00000-0  46575-4 0  9990
2 57220  43.0049  65.4955 0001481 266.1538  93.9135 15.02532651 56457
Source of the keplerian elements: AFSPC